GFSFLT2_sfc_temp_252.txt.gz
Temp
46 49 47 49 48 47 46 45 47 52 53 52 52 52 52 52 52 51 52 52 52 53 53 54 55 55 56
46 47 45 45 45 43 44 45 44 48 49 50 50 50 50 50 50 50 50 50 50 51 51 52 53 54 54
43 46 43 43 41 41 40 41 42 44 46 47 49 49 48 48 48 48 48 49 49 48 49 49 50 51 52
43 42 40 41 40 38 37 37 37 41 42 44 45 46 48 47 47 47 47 47 48 48 48 47 48 48 49
39 38 36 37 36 37 36 35 35 36 37 39 41 40 42 43 44 46 47 46 47 46 46 46 45 46 46
36 35 35 36 37 36 35 33 32 37 36 35 36 34 38 40 46 46 46 45 45 44 44 44 44 44 45
34 34 35 37 38 32 31 30 26 28 32 26 32 31 35 39 45 44 43 43 43 43 43 43 43 43 44
33 33 33 34 35 35 32 26 27 27 30 25 27 28 33 33 42 42 42 41 41 42 42 42 42 42 42
41 41 41 40 38 33 27 26 26 28 28 27 29 29 31 31 33 41 41 41 41 42 42 41 41 40 34
32 33 34 34 36 29 28 26 26 24 28 26 28 28 25 31 31 33 32 40 40 40 40 40 41 31 28
30 29 29 29 28 29 29 28 24 23 29 24 23 24 21 26 30 29 29 29 30 31 37 38 39 37 29
29 27 27 27 28 29 30 29 29 27 27 27 13 18 14 15 22 28 27 27 28 28 28 33 35 36 38
28 27 28 28 29 29 30 30 29 29 30 27 21 21 16 12 16 21 25 27 27 24 26 26 26 27 27
28 29 29 27 26 27 24 24 20 23 29 29 26 22 11 18 17 16 22 16 25 24 24 27 26 27 26
27 27 28 27 27 25 23 18 15 16 18 22 24 25 23 16 11 19 19 20 21 23 24 24 27 26 26
25 25 24 23 21 20 19 15 13 15 14 15 15 14 16 20 26 18 18 18 20 22 23 16 23 27 27
22 21 20 18 17 15 19 23 23 23 19 24 15 21 18 12 20 32 16 17 18 21 20 19 20 25 27

GFSFLT2_sfc_temp_258.txt.gz
Temp
44 46 45 46 45 46 46 45 47 52 53 53 52 52 52 51 51 52 52 52 52 53 53 54 54 55 55
44 45 43 44 43 42 43 44 44 48 50 51 51 50 50 49 49 50 50 50 50 50 50 50 51 52 53
43 44 42 42 40 40 40 40 42 45 46 48 49 49 49 49 48 48 48 49 49 48 47 47 48 49 50
41 41 40 40 40 38 37 37 37 41 43 45 45 47 47 47 47 47 47 47 47 47 46 46 46 46 47
39 38 37 37 36 37 35 35 35 36 37 39 40 39 39 42 45 46 46 46 45 45 45 45 44 45 46
37 36 36 36 37 36 35 34 32 34 35 33 33 32 34 42 45 45 45 44 43 44 44 44 43 43 44
35 33 33 33 32 30 31 29 25 25 28 25 28 30 32 36 44 43 43 42 43 43 43 43 43 42 42
31 31 31 31 32 32 30 23 25 25 27 26 24 26 29 30 42 42 42 42 42 42 42 42 41 41 40
40 40 40 39 36 32 28 26 25 26 27 26 26 27 27 28 31 41 41 42 41 41 40 40 40 39 32
30 30 31 33 35 29 28 25 25 23 27 24 26 25 23 28 28 28 29 37 38 38 38 38 39 30 27
28 27 28 28 28 29 28 28 23 22 27 22 20 22 18 22 26 27 26 27 27 29 34 35 37 35 27
29 27 27 27 27 27 28 28 28 27 27 26 11 15 8 12 18 26 25 25 25 26 26 31 33 34 35
28 27 27 27 28 27 28 28 28 29 30 27 20 20 14 9 14 18 23 25 25 22 24 24 24 25 24
28 28 27 26 25 25 21 23 21 22 28 28 25 21 10 16 15 14 19 14 23 23 24 24 25 25 25
25 25 27 26 25 24 20 18 13 15 17 21 22 22 20 13 10 16 18 17 20 21 21 21 23 25 24
23 24 24 22 22 20 18 14 13 15 13 14 14 11 14 17 25 23 21 16 19 20 21 15 19 24 26
22 22 21 20 20 17 19 18 15 18 12 11 5 3 -1 4 18 29 13 15 15 16 18 17 20 23 26

GFSFLT2_sfc_temp_261.txt.gz
Temp
43 44 46 45 45 45 46 45 46 51 53 53 53 52 51 51 51 51 52 52 52 53 53 53 53 54 54
44 44 43 44 43 42 43 44 43 48 51 51 50 50 50 50 50 50 50 50 50 49 49 50 50 51 52
42 44 42 42 40 40 40 41 42 45 47 49 50 49 49 49 48 48 48 48 48 47 47 47 47 48 49
41 41 40 40 40 38 37 37 37 41 43 44 45 46 47 47 47 46 46 46 46 46 46 45 45 46 47
39 38 37 37 37 37 35 36 35 35 37 38 39 39 40 43 45 46 45 45 44 44 45 45 44 44 45
37 36 36 36 37 36 35 34 32 32 34 33 33 32 33 41 45 45 44 43 43 44 44 44 43 43 43
36 35 35 34 33 33 32 30 28 25 27 25 28 29 31 35 44 43 42 43 43 43 43 42 42 42 41
32 30 30 31 32 32 30 23 25 25 27 24 24 25 28 29 40 42 42 42 42 42 41 41 41 41 40
39 40 40 39 35 32 27 26 26 26 26 26 26 26 27 27 30 39 40 41 40 40 40 39 40 39 32
29 30 31 33 35 29 28 25 24 22 27 24 25 25 23 27 27 28 28 37 37 37 37 37 38 30 27
29 28 28 28 27 28 27 28 22 20 26 22 20 21 17 21 26 26 26 26 27 28 33 34 36 35 27
29 27 27 26 26 27 27 27 28 26 26 26 11 15 9 13 20 26 25 25 25 26 26 30 32 33 35
28 27 26 26 27 27 27 28 27 28 29 26 21 22 17 13 16 19 22 25 25 22 23 24 24 24 23
28 27 27 23 22 24 20 22 18 21 27 27 25 21 12 17 18 14 19 14 22 22 23 23 25 25 24
26 25 25 24 23 22 19 16 12 14 17 21 21 22 21 14 10 17 17 16 18 19 20 20 23 24 24
24 24 20 18 18 17 16 12 11 14 13 15 14 11 13 17 24 17 16 15 18 19 20 14 18 23 25
22 20 16 15 16 14 15 14 13 15 12 8 3 1 -0 3 17 29 13 14 14 16 17 16 16 23 25

GFSFLT2_sfc_temp_264.txt.gz
Temp
43 45 46 44 44 44 45 44 46 52 53 53 53 52 52 51 51 52 52 52 52 52 52 53 53 53 54
43 43 43 43 43 42 43 44 44 49 51 51 51 50 51 50 50 50 50 49 49 48 49 49 50 51 51
42 44 42 42 40 40 40 41 43 45 47 49 50 49 49 49 49 48 48 48 47 47 47 47 47 48 49
41 41 40 40 41 38 37 38 37 41 43 45 45 47 48 48 47 46 46 46 46 46 46 45 45 46 46
39 38 37 37 37 38 36 36 34 35 37 37 39 39 40 44 45 45 45 45 44 45 45 45 44 44 44
38 37 36 37 37 37 35 34 32 32 35 34 33 32 33 40 45 45 44 43 44 44 44 43 43 43 43
36 36 35 36 36 34 33 33 29 25 28 25 27 29 31 34 44 43 43 43 43 42 42 42 42 42 41
35 33 31 31 31 31 29 23 25 26 28 24 24 25 28 29 41 42 42 42 42 41 41 40 40 40 39
40 40 40 39 34 31 27 27 26 27 27 27 25 27 27 27 30 39 40 40 40 39 39 39 39 39 31
28 30 31 33 35 30 29 25 24 22 26 24 26 25 22 26 27 27 28 36 37 36 37 37 38 30 27
29 27 28 28 28 28 28 28 22 21 26 23 19 20 16 20 26 26 26 26 26 28 33 34 36 34 27
29 27 27 27 27 27 27 27 27 26 26 25 11 15 9 11 18 25 25 24 25 25 25 30 32 32 34
28 27 27 27 28 26 27 27 26 27 28 26 19 20 13 10 13 17 20 24 25 21 23 23 23 24 23
28 28 27 25 23 24 20 21 17 20 26 26 23 19 9 15 16 14 19 14 22 20 21 22 24 25 24
26 25 26 25 23 21 19 15 10 12 15 19 20 21 19 13 9 16 16 16 18 18 19 19 22 24 24
25 25 23 20 18 17 16 11 10 13 11 13 12 10 14 18 24 15 15 14 17 18 19 13 18 23 25
23 22 19 15 16 13 14 13 12 12 11 10 7 5 1 4 17 28 13 13 14 15 16 15 15 22 24